Wind_Speed
41 41 41 41 42 42 42 43 43 43 44 44 44 44 44 44 44 44 45 45 45 44 44 44 44 43 44 44 45 44 44 43 44 44 43 43 44 44 44 43 43 44 44
41 41 41 42 42 43 43 43 43 44 45 45 46 45 45 46 45 45 45 46 46 45 46 46 45 45 45 45 45 44 45 45 45 46 45 45 45 46 45 45 45 45 45
41 41 42 42 43 43 43 44 44 45 45 46 46 46 46 47 47 46 46 46 47 47 48 48 47 47 47 47 47 46 46 46 46 47 47 47 46 47 46 47 47 46 46
41 42 42 43 43 43 44 44 45 45 46 46 46 47 47 48 48 47 47 48 48 48 49 49 49 48 48 48 49 49 48 48 49 49 49 49 48 48 47 47 48 48 49
41 41 42 43 43 43 44 45 45 45 46 47 47 47 48 49 49 49 49 49 49 49 49 49 49 49 50 50 50 51 51 51 50 50 50 49 49 49 49 49 49 49 50
41 41 42 42 43 44 44 45 46 46 47 48 48 48 49 50 50 50 50 50 50 50 50 50 50 50 51 51 52 52 52 53 52 52 52 51 51 51 51 50 49 50 51
41 41 41 42 43 43 44 45 46 47 48 48 49 49 50 50 51 51 52 51 51 50 51 51 51 52 52 52 53 53 54 55 54 54 54 53 52 53 53 53 52 51 51
40 41 41 42 42 43 44 45 46 47 47 48 49 49 50 50 50 50 50 51 51 51 52 52 52 53 52 52 53 53 53 54 54 55 55 55 54 54 54 54 54 54 54
40 40 40 41 42 43 44 44 45 46 47 47 48 49 49 50 50 51 51 51 50 51 51 52 53 53 53 53 53 54 54 54 54 55 55 55 55 55 56 56 56 56 56
39 39 40 41 42 43 43 44 45 46 46 47 48 48 49 49 49 50 50 50 51 51 51 52 53 53 53 53 54 54 55 55 55 55 55 55 56 56 57 57 57 58 57
39 39 39 40 41 42 43 44 44 45 45 46 46 47 48 49 49 50 50 50 50 51 50 51 52 53 54 54 54 54 55 55 55 56 56 56 56 56 57 58 58 59 59
39 39 39 40 40 40 41 42 43 43 44 44 44 45 46 47 47 49 49 50 50 51 51 51 52 53 54 54 54 55 55 55 55 56 56 57 58 57 57 58 59 59 60
39 39 40 40 40 40 40 40 41 41 42 42 43 44 45 45 46 47 48 49 50 50 51 51 52 53 54 54 54 55 55 56 55 56 56 57 58 58 58 57 58 59 59
39 39 39 40 40 40 40 39 40 40 41 41 43 44 45 45 46 47 48 48 49 50 51 52 52 53 53 54 55 55 56 56 56 56 57 56 57 57 57 58 58 58 59
38 39 39 39 39 40 40 40 40 41 41 42 43 44 44 45 46 47 47 48 48 49 49 50 51 52 53 54 54 55 56 56 57 57 58 57 57 57 58 58 58 59 59
38 38 38 39 39 39 39 39 40 40 41 42 43 44 45 45 46 46 46 47 47 47 47 48 49 50 50 51 53 54 56 57 57 58 58 58 57 57 57 58 59 59 59
37 38 38 37 38 38 38 38 39 40 41 42 42 43 43 43 44 45 45 45 44 45 45 45 46 47 47 48 50 51 53 54 55 56 57 58 58 57 57 58 58 58 58
37 37 37 37 37 37 38 38 39 39 40 41 42 42 41 42 42 42 43 43 44 44 44 45 45 45 45 46 47 48 49 50 52 53 54 55 55 56 56 57 56 55 55
37 37 37 36 36 37 37 38 39 39 40 41 41 40 40 40 41 41 42 42 43 43 43 44 44 44 45 45 46 46 47 48 49 50 51 52 52 53 54 55 55 54 54
36 36 36 36 36 36 37 37 38 39 39 39 39 39 39 40 40 40 41 41 42 43 43 43 43 44 44 44 44 44 45 46 46 47 48 49 50 51 53 54 54 54 54
36 36 36 36 36 36 36 37 37 37 37 38 38 38 38 39 39 40 40 41 42 42 42 42 42 42 42 42 42 43 43 44 45 46 46 47 48 50 51 52 53 54 54
36 36 35 36 36 35 35 35 36 36 36 37 37 37 37 38 38 39 39 39 40 41 41 41 41 41 41 41 41 42 43 43 44 44 46 47 48 48 49 50 51 52 53
35 34 34 34 34 34 34 34 34 34 34 35 35 36 36 37 37 37 38 38 39 39 40 40 40 41 41 42 42 42 43 43 44 44 44 45 46 47 48 49 50 50 51
33 33 33 33 33 33 33 33 33 33 33 33 34 34 35 35 36 37 37 38 38 39 40 40 41 41 41 42 43 43 43 43 43 43 43 44 45 45 46 47 48 49 50
33 33 32 32 32 32 32 32 33 33 32 33 33 33 34 34 35 36 36 37 37 38 39 39 40 41 41 41 42 42 43 43 43 42 43 43 43 43 44 44 45 46 47
33 32 32 31 31 31 31 31 31 32 32 32 32 32 33 34 35 35 36 36 37 37 38 39 40 40 40 40 41 41 41 41 42 42 42 42 42 41 41 41 42 43 43
Wind_Direction
271 271 272 272 271 270 268 267 266 264 263 262 261 260 260 260 260 260 260 261 261 262 262 262 262 262 261 261 260 259 258 257 256 256 255 254 254 254 253 253 252 252 251
272 272 273 273 272 271 269 267 266 264 263 262 262 261 260 259 260 260 261 261 261 261 261 261 262 262 261 260 259 259 258 257 257 256 255 255 254 254 253 252 252 252 251
274 274 274 273 272 271 269 268 266 264 262 262 262 262 261 260 260 260 261 262 262 261 261 261 262 262 261 260 259 258 258 258 258 257 257 256 255 254 253 252 252 252 251
274 274 274 273 272 271 270 268 266 264 263 262 262 262 262 261 260 260 261 261 262 263 262 262 261 262 261 260 260 259 258 258 258 259 258 257 255 255 254 253 253 253 252
274 274 274 273 272 271 270 269 267 265 264 263 263 262 262 261 261 260 261 261 261 263 263 262 262 261 260 260 260 259 259 259 259 259 258 258 257 257 256 255 254 254 253
275 275 274 274 273 272 270 269 267 266 265 264 264 263 262 262 262 261 261 262 262 262 262 262 262 261 261 260 259 259 259 259 259 259 258 258 258 258 257 256 256 255 254
276 276 275 274 273 272 271 270 268 267 267 266 265 264 264 263 263 262 261 262 262 262 262 262 262 261 261 260 260 260 259 259 259 259 258 258 259 258 258 257 256 254 253
277 276 276 275 275 273 272 271 269 268 268 267 266 265 264 264 264 263 262 262 262 262 262 262 262 262 261 261 260 260 260 259 258 258 258 259 259 259 259 258 257 255 254
278 277 276 276 276 275 274 272 270 269 268 267 267 266 266 265 265 264 263 263 262 262 262 262 262 261 261 261 261 261 261 260 259 258 259 259 260 260 260 259 257 256 255
279 279 278 278 277 277 275 273 272 271 270 269 268 267 266 266 265 264 264 264 263 263 262 262 262 262 263 262 262 262 261 260 260 259 260 260 260 260 260 259 258 257 257
281 281 281 281 280 279 278 276 273 271 270 269 268 267 267 267 266 264 264 265 265 265 264 264 263 263 263 263 262 262 261 260 260 260 260 261 260 261 261 260 259 258 258
282 282 283 283 282 281 280 278 275 273 271 270 269 268 268 268 267 266 266 266 266 266 266 266 265 264 264 264 264 263 261 261 260 260 260 261 261 262 261 260 259 259 258
282 283 284 284 283 282 281 279 277 274 272 271 270 269 269 269 268 268 267 267 267 267 266 267 266 266 265 264 264 263 262 261 261 260 260 261 261 262 261 260 260 259 258
283 284 285 284 283 283 282 280 277 275 274 272 272 271 271 270 269 269 269 269 269 269 268 267 267 266 265 264 264 264 263 262 261 261 261 261 261 262 262 260 260 259 259
286 286 285 285 284 283 281 280 278 277 275 274 274 273 272 272 271 270 270 270 271 271 270 269 268 267 267 266 265 264 263 262 262 261 261 261 262 262 262 261 260 260 259
288 288 287 286 284 283 283 282 280 278 277 276 276 275 274 273 272 272 271 271 271 271 271 271 270 269 269 267 266 264 263 263 263 262 261 261 261 262 262 261 260 259 259
289 289 289 288 285 284 283 283 281 280 279 278 278 277 276 274 273 272 272 272 272 272 272 271 271 270 270 269 268 266 264 263 262 262 262 261 261 261 261 261 260 259 258
291 290 290 288 286 284 284 283 282 282 281 280 279 278 277 275 274 273 273 273 272 273 273 272 272 271 271 270 269 268 266 264 263 263 262 261 261 261 261 260 259 259 258
291 291 291 289 288 286 285 284 284 283 282 280 279 278 277 276 276 274 274 274 274 274 273 273 272 272 272 271 271 269 267 266 265 263 262 262 261 261 261 260 259 259 258
293 292 292 291 289 288 287 286 286 285 284 282 280 279 278 278 277 276 275 275 275 275 274 274 274 274 273 273 272 270 269 268 266 265 264 262 262 261 262 262 260 259 258
294 293 293 292 291 290 289 288 287 285 285 283 281 280 280 279 278 278 278 277 277 276 275 274 274 274 274 273 272 271 270 270 268 267 265 265 264 263 263 263 262 260 259
294 295 294 293 293 292 291 289 288 287 286 284 282 281 280 280 280 279 279 279 278 277 276 275 274 274 274 274 273 272 271 270 269 268 267 266 266 265 264 263 263 262 260
296 296 296 296 295 295 294 292 291 289 287 286 284 282 282 281 281 280 280 280 280 279 278 277 276 275 274 273 272 272 271 271 270 269 269 268 267 266 265 264 263 261 260
297 298 298 298 297 296 296 295 293 292 290 288 287 285 284 283 283 282 282 281 281 281 279 278 277 276 276 274 273 272 271 271 270 270 269 269 268 267 266 265 263 262 261
298 298 298 298 297 296 296 296 295 294 292 291 289 288 287 285 285 285 284 284 283 283 282 280 278 277 276 274 273 273 272 271 271 271 271 270 269 267 266 265 265 264 262
297 297 298 298 298 298 297 296 296 295 294 293 292 291 290 289 288 287 286 285 285 284 284 283 281 279 278 276 274 273 273 272 273 273 272 271 269 268 266 265 264 264 263
Height
5696 5695 5694 5693 5692 5691 5691 5691 5691 5690 5690 5690 5691 5692 5693 5694 5695 5696 5697 5698 5699 5700 5701 5703 5704 5705 5706 5707 5708 5709 5711 5713 5715 5717 5719 5721 5723 5725 5727 5730 5732 5734 5737
5685 5684 5683 5682 5680 5679 5679 5678 5678 5678 5678 5678 5679 5680 5681 5682 5682 5684 5685 5686 5688 5689 5690 5691 5692 5693 5694 5695 5697 5698 5699 5701 5703 5705 5707 5709 5712 5714 5716 5718 5721 5723 5725
5673 5672 5671 5670 5669 5667 5666 5666 5666 5666 5666 5666 5667 5668 5669 5670 5671 5672 5673 5674 5675 5677 5678 5679 5680 5681 5682 5683 5684 5686 5687 5689 5691 5692 5694 5697 5699 5702 5704 5706 5709 5711 5713
5662 5660 5659 5658 5657 5655 5654 5654 5653 5653 5653 5654 5654 5655 5656 5657 5658 5660 5661 5662 5662 5663 5665 5666 5667 5668 5669 5671 5672 5673 5675 5676 5678 5679 5681 5684 5686 5689 5692 5694 5696 5698 5701
5650 5649 5647 5646 5644 5643 5642 5641 5641 5641 5641 5641 5642 5643 5644 5645 5646 5647 5649 5650 5650 5650 5651 5653 5654 5655 5656 5658 5659 5660 5662 5663 5665 5666 5668 5670 5672 5675 5678 5681 5683 5686 5688
5639 5637 5636 5634 5633 5631 5630 5629 5629 5629 5628 5628 5629 5630 5631 5632 5633 5634 5635 5636 5637 5637 5638 5639 5641 5642 5643 5644 5645 5646 5648 5650 5651 5653 5655 5657 5659 5662 5664 5667 5670 5672 5675
5628 5626 5624 5623 5621 5620 5619 5618 5617 5616 5616 5616 5616 5617 5618 5618 5619 5620 5621 5623 5624 5624 5625 5626 5627 5628 5629 5630 5631 5632 5634 5635 5637 5639 5641 5643 5645 5648 5650 5653 5655 5658 5661
5616 5615 5613 5611 5609 5608 5607 5605 5605 5604 5603 5603 5603 5603 5604 5605 5606 5606 5608 5609 5610 5611 5611 5612 5613 5613 5614 5615 5616 5618 5619 5621 5622 5624 5626 5628 5631 5633 5635 5638 5640 5643 5647
5606 5604 5602 5600 5598 5596 5595 5593 5592 5591 5590 5590 5590 5590 5590 5591 5592 5593 5594 5595 5596 5597 5597 5598 5598 5599 5599 5600 5601 5603 5604 5606 5608 5610 5612 5614 5616 5618 5620 5622 5625 5628 5631
5595 5593 5591 5589 5586 5584 5583 5581 5580 5578 5578 5577 5577 5577 5577 5578 5578 5579 5580 5581 5581 5582 5583 5584 5584 5585 5585 5586 5587 5588 5589 5591 5593 5595 5597 5598 5600 5602 5604 5606 5608 5611 5615
5584 5582 5580 5577 5575 5573 5571 5569 5567 5566 5565 5564 5564 5564 5564 5565 5565 5566 5567 5567 5567 5568 5568 5569 5569 5570 5570 5571 5572 5572 5574 5576 5577 5579 5581 5583 5584 5586 5588 5590 5592 5595 5598
5573 5571 5569 5566 5564 5562 5559 5557 5555 5554 5553 5552 5552 5552 5552 5552 5552 5553 5553 5554 5554 5554 5554 5554 5554 5555 5555 5556 5556 5557 5558 5560 5562 5564 5565 5567 5568 5570 5571 5573 5575 5578 5580
5563 5560 5558 5555 5553 5550 5548 5546 5544 5542 5541 5540 5540 5540 5540 5540 5540 5540 5540 5540 5540 5540 5540 5540 5540 5540 5540 5541 5541 5542 5543 5545 5546 5548 5549 5551 5552 5554 5555 5556 5558 5561 5563
5552 5550 5547 5544 5542 5539 5537 5535 5533 5531 5530 5529 5528 5528 5527 5527 5527 5526 5526 5526 5525 5525 5525 5525 5525 5524 5524 5525 5525 5526 5528 5529 5530 5532 5533 5535 5536 5537 5538 5540 5541 5543 5546
5541 5539 5536 5533 5530 5528 5526 5523 5522 5520 5518 5517 5516 5515 5515 5514 5513 5513 5513 5512 5511 5511 5510 5510 5509 5509 5509 5509 5509 5510 5512 5513 5515 5516 5517 5518 5519 5520 5521 5523 5525 5526 5529
5531 5528 5525 5522 5519 5517 5514 5512 5510 5508 5507 5505 5504 5503 5502 5501 5501 5500 5499 5499 5498 5497 5496 5495 5495 5494 5494 5494 5494 5494 5496 5497 5498 5500 5501 5502 5503 5503 5504 5506 5507 5509 5511
5521 5518 5514 5511 5508 5506 5503 5501 5499 5497 5495 5494 5492 5490 5489 5488 5488 5487 5486 5485 5485 5484 5483 5482 5481 5480 5480 5479 5479 5479 5480 5481 5482 5483 5484 5485 5486 5486 5487 5489 5490 5492 5494
5510 5507 5504 5501 5498 5495 5492 5490 5488 5486 5484 5482 5480 5478 5477 5476 5475 5474 5473 5472 5472 5471 5470 5469 5468 5467 5466 5465 5465 5464 5465 5466 5466 5467 5468 5469 5469 5470 5471 5472 5474 5476 5478
5500 5497 5494 5490 5487 5484 5482 5479 5477 5475 5472 5470 5468 5467 5465 5464 5463 5462 5461 5460 5459 5458 5457 5456 5455 5454 5453 5452 5451 5450 5451 5451 5452 5452 5453 5453 5454 5455 5455 5456 5459 5461 5463
5490 5487 5484 5480 5477 5474 5471 5469 5466 5464 5461 5459 5457 5455 5454 5453 5451 5450 5449 5447 5446 5445 5444 5443 5442 5441 5440 5439 5438 5437 5437 5438 5438 5438 5438 5439 5439 5439 5439 5440 5442 5445 5447
5481 5477 5474 5470 5467 5464 5461 5458 5455 5453 5450 5448 5446 5444 5443 5441 5440 5438 5437 5435 5434 5433 5432 5431 5430 5428 5427 5426 5425 5424 5424 5424 5424 5424 5425 5424 5424 5425 5425 5425 5427 5429 5431
5471 5468 5464 5461 5457 5454 5451 5448 5445 5443 5440 5438 5435 5433 5432 5430 5428 5427 5425 5423 5422 5420 5419 5418 5417 5415 5414 5413 5412 5411 5410 5410 5410 5410 5411 5410 5410 5410 5411 5411 5412 5413 5415
5462 5458 5455 5451 5448 5444 5441 5438 5435 5433 5430 5427 5425 5423 5421 5419 5417 5416 5414 5412 5410 5408 5407 5405 5404 5403 5401 5400 5399 5398 5397 5396 5396 5396 5396 5396 5396 5396 5396 5397 5397 5398 5400
5453 5449 5446 5442 5439 5435 5432 5429 5426 5423 5421 5418 5415 5413 5411 5409 5407 5405 5403 5400 5398 5396 5394 5393 5391 5390 5388 5387 5386 5384 5384 5383 5382 5382 5382 5382 5381 5381 5382 5382 5383 5384 5385
5444 5441 5437 5433 5430 5426 5423 5420 5417 5414 5411 5409 5406 5403 5401 5399 5396 5394 5391 5389 5387 5384 5382 5380 5378 5376 5375 5373 5372 5370 5370 5369 5369 5368 5368 5368 5368 5368 5368 5368 5368 5369 5370
5435 5431 5428 5425 5421 5418 5414 5411 5408 5405 5402 5399 5396 5394 5391 5388 5386 5383 5381 5378 5375 5372 5369 5367 5365 5363 5361 5360 5358 5357 5356 5355 5355 5354 5354 5354 5354 5354 5354 5354 5355 5355 5356